Time,TemperatureF,DewpointF,PressureIn,WindDirection,WindDirectionDegrees,WindSpeedMPH,WindSpeedGustMPH,Humidity,HourlyPrecipIn,Conditions,Clouds,dailyrainin,SoftwareType,DateUTC
2013-06-08 00:30:00,55.6,47.2,29.91,East,90,0.0,0.0,73,0.00,,,0.00,WUHU21623XXSP,2013-06-08 05:30:00,
2013-06-08 01:30:00,54.5,46.8,29.91,East,90,0.0,0.0,75,0.00,,,0.00,WUHU21623XXSP,2013-06-08 06:30:00,
2013-06-08 02:30:00,53.2,46.2,29.90,SSE,158,0.0,0.0,77,0.00,,,0.00,WUHU21623XXSP,2013-06-08 07:30:00,
2013-06-08 03:30:00,52.5,45.2,29.90,SSE,158,0.0,0.0,76,0.00,,,0.00,WUHU21623XXSP,2013-06-08 08:30:00,
2013-06-08 04:30:00,52.0,44.7,29.90,SSE,158,0.0,0.0,76,0.00,,,0.00,WUHU21623XXSP,2013-06-08 09:30:00,
2013-06-08 05:30:00,52.0,44.4,29.91,West,270,0.0,0.0,75,0.00,,,0.00,WUHU21623XXSP,2013-06-08 10:30:00,
2013-06-08 06:30:00,52.9,45.6,29.93,WNW,293,0.0,0.0,76,0.00,,,0.00,WUHU21623XXSP,2013-06-08 11:30:00,
2013-06-08 07:30:00,57.0,48.5,29.94,NW,315,0.0,0.0,73,0.00,,,0.00,WUHU21623XXSP,2013-06-08 12:30:00,
2013-06-08 08:30:00,62.8,50.6,29.95,NNE,23,6.9,6.9,64,0.00,,,0.00,WUHU21623XXSP,2013-06-08 13:30:00,
2013-06-08 09:20:00,67.1,53.2,29.95,ENE,67,0.0,0.0,61,0.00,,,0.00,WUHU21623XXSP,2013-06-08 14:20:00,
2013-06-08 09:25:00,67.3,52.5,29.94,NE,45,1.6,2.9,59,1.33,,,1.33,WUHU21623XXSP,2013-06-08 14:25:00,
2013-06-08 09:30:00,67.6,52.8,29.94,NE,45,0.0,2.9,59,0.00,,,1.33,WUHU21623XXSP,2013-06-08 14:30:00,
2013-06-08 10:30:00,70.5,54.7,29.94,East,90,0.0,0.0,57,0.00,,,0.00,WUHU21623XXSP,2013-06-08 15:30:00,
2013-06-08 11:30:00,71.2,53.8,29.94,South,180,0.0,0.0,54,0.00,,,0.00,WUHU21623XXSP,2013-06-08 16:30:00,
2013-06-08 12:30:00,73.6,55.5,29.93,East,90,0.0,0.0,53,0.00,,,0.00,WUHU21623XXSP,2013-06-08 17:30:00,
2013-06-08 13:30:00,73.2,55.7,29.92,SSW,203,0.0,0.0,54,0.00,,,0.00,WUHU21623XXSP,2013-06-08 18:30:00,
2013-06-08 14:30:00,75.6,56.9,29.91,SSW,203,0.0,0.0,52,0.00,,,0.00,WUHU21623XXSP,2013-06-08 19:30:00,
2013-06-08 15:30:00,75.0,55.7,29.91,WSW,248,0.0,0.0,51,0.00,,,0.00,WUHU21623XXSP,2013-06-08 20:30:00,
2013-06-08 16:30:00,75.0,55.7,29.91,WSW,248,0.0,0.0,51,0.00,,,0.00,WUHU21623XXSP,2013-06-08 21:30:00,
2013-06-08 17:30:00,74.5,55.8,29.91,WSW,248,0.0,0.0,52,0.00,,,0.00,WUHU21623XXSP,2013-06-08 22:30:00,
2013-06-08 18:30:00,73.9,55.3,29.91,WSW,248,0.0,0.0,52,0.00,,,0.19,WUHU21623XXSP,2013-06-08 23:30:00,
2013-06-08 19:30:00,72.7,55.2,29.91,WSW,248,0.0,0.0,54,0.00,,,0.19,WUHU21623XXSP,2013-06-09 00:30:00,
2013-06-08 20:30:00,70.0,54.7,29.92,WSW,248,0.0,0.0,58,0.00,,,0.19,WUHU21623XXSP,2013-06-09 01:30:00,
2013-06-08 21:30:00,67.8,54.0,29.93,East,90,0.0,0.0,61,0.00,,,0.19,WUHU21623XXSP,2013-06-09 02:30:00,
2013-06-08 22:30:00,65.1,53.6,29.95,East,90,0.0,0.0,66,0.00,,,0.19,WUHU21623XXSP,2013-06-09 03:30:00,
2013-06-08 23:30:00,63.7,53.1,29.95,ESE,113,0.0,0.0,68,0.00,,,0.19,WUHU21623XXSP,2013-06-09 04:30:00,